OSCAR 7 1 07530U 74089B 26120.98117144 -.00000033 00000-0 83097-4 0 9997 2 07530 101.9926 133.7322 0011999 219.8635 195.6403 12.53697390354600 OSCAR 11 (UOSAT 2) 1 14781U 84021B 26120.89975147 .00001399 00000-0 14838-3 0 9996 2 14781 97.8024 87.0173 0007327 352.8767 7.2346 14.90669151250085 OSCAR 19 (LUSAT) 1 20442U 90005G 26120.59949826 .00000136 00000-0 65224-4 0 9992 2 20442 98.8880 141.0870 0011337 351.5187 8.5804 14.34107894895571 EYESAT A 1 22825U 93061C 26120.66116940 .00000110 00000-0 58811-4 0 9991 2 22825 98.6900 188.0862 0007447 235.1625 124.8857 14.30929012700207 ITAMSAT 1 22826U 93061D 26120.72462774 .00000109 00000-0 58140-4 0 9991 2 22826 98.6848 188.0624 0008212 216.9611 143.1006 14.31354579700524 RADIO ROSTO 1 23439U 94085A 26120.93339048 -.00000034 00000-0 24280-3 0 9994 2 23439 64.8209 19.6390 0154607 12.4863 347.9825 11.27583806290579 JAS 2 1 24278U 96046B 26120.47426956 .00000013 00000-0 50669-4 0 9996 2 24278 98.5296 335.8670 0349180 220.1294 137.3578 13.53271984466712 TECHSAT 1B 1 25397U 98043D 26120.93118432 .00000063 00000-0 47373-4 0 9999 2 25397 99.0062 112.5015 0001590 34.8464 325.2818 14.24418906444609 ISS (ZARYA) 1 25544U 98067A 26120.65152929 .00006769 00000-0 13072-3 0 9994 2 25544 51.6314 175.3907 0007169 8.3355 351.7751 15.49036282564386 PCSAT 1 26931U 01043C 26120.94352030 .00000150 00000-0 86872-4 0 9997 2 26931 67.0526 6.4651 0006446 263.9104 96.1264 14.31937382283682 SAUDISAT 1C 1 27607U 02058C 26120.81611918 .00001284 00000-0 16857-3 0 9998 2 27607 64.5517 275.5370 0075620 271.0859 88.1584 14.82941374257431 CUTE-1 1 27844U 03031E 26120.97053195 .00000313 00000-0 15453-3 0 9990 2 27844 98.6752 130.1214 0008859 329.3692 30.6969 14.24305763184955 CUBESAT XI 4 1 27848U 03031J 26120.93537890 .00000259 00000-0 13270-3 0 9993 2 27848 98.6788 129.8376 0009100 348.7996 11.2979 14.23594871184656 MOZHAYETS 4 1 27939U 03042A 26120.96457965 .00001228 00000-0 19760-3 0 9990 2 27939 98.3463 303.9931 0012460 61.4106 93.3781 14.73382416208598 CUBESAT XI 5 1 28895U 05043F 26120.90602535 .00001528 00000-0 24868-3 0 9992 2 28895 98.2931 275.5534 0013936 1.0440 359.0793 14.72505125 94795 CUTE-1.7+APD 2 1 32785U 08021C 26120.90978135 .00005893 00000-0 37662-3 0 9991 2 32785 97.8249 101.3699 0008878 178.5772 181.5483 15.08997584978069 SEEDS 1 32791U 08021J 26120.97458408 .00021953 00000-0 73123-3 0 9998 2 32791 97.7523 116.6816 0005114 107.3643 252.8157 15.31126835980069 YUBELEINY 1 32953U 08025A 26120.93830705 -.00000039 00000-0 -35432-3 0 9997 2 32953 82.5082 24.8278 0020600 55.4213 304.8807 12.43177391813828 KKS-1 (KISEKI) 1 33499U 09002H 26120.89328775 .00001496 00000-0 19085-3 0 9995 2 33499 98.1194 42.5909 0009344 84.4038 275.8240 14.82998847929185 SWISSCUBE 1 35932U 09051B 26120.68543559 .00001111 00000-0 22951-3 0 9999 2 35932 98.4066 27.7435 0007109 11.9235 348.2132 14.62386810882216 BEESAT 1 35933U 09051C 26120.67039369 .00000925 00000-0 19572-3 0 9995 2 35933 98.3994 27.4623 0005893 27.5817 332.5695 14.61640204882241 ITUPSAT 1 1 35935U 09051E 26120.68831134 .00000859 00000-0 18763-3 0 9995 2 35935 98.4078 26.7222 0008262 34.4143 325.7590 14.60366692881800 XIWANG-1 (HOPE-1) 1 36122U 09072B 26120.89643257 .00000060 00000-0 27210-3 0 9998 2 36122 100.3991 75.4916 0007452 347.1574 12.9348 13.16438914786783 TISAT 1 1 36799U 10035E 26120.79054957 .00022819 00000-0 78957-3 0 9991 2 36799 98.0692 63.2150 0004399 73.0726 287.0994 15.29891871860450 JUGNU 1 37839U 11058B 26120.64927935 .00000469 00000-0 10539-3 0 9991 2 37839 19.9604 237.2363 0018452 271.8214 120.1143 14.13762363752295 SRMSAT 1 37841U 11058D 26120.94004858 .00000431 00000-0 90191-4 0 9999 2 37841 19.9736 345.4475 0011745 44.6121 73.1730 14.11564603751137 HORYU 2 1 38340U 12025D 26120.85693204 .00003924 00000-0 40501-3 0 9997 2 38340 98.2106 251.8864 0007505 345.9767 14.1241 14.90780279741673 STRAND 1 1 39090U 13009E 26120.43426229 .00000307 00000-0 11773-3 0 9999 2 39090 98.3914 301.8464 0009001 21.7835 338.3733 14.37134399690200 CUBEBUG 1 1 39153U 13018D 26120.91597565 .00004569 00000-0 40215-3 0 9991 2 39153 98.1612 278.7758 0010147 308.3024 51.7283 14.97003004703999 ZACUBE 1 39417U 13066B 26120.87626659 .00006043 00000-0 47118-3 0 9997 2 39417 97.8125 82.9584 0043613 51.7472 308.7664 15.00799892673636 TRITON 1 1 39427U 13066M 26120.95324748 .00003410 00000-0 41168-3 0 9995 2 39427 97.8279 31.8382 0091234 29.1596 331.4667 14.81479320667092 GOMX 1 1 39430U 13066Q 26120.92544229 .00001477 00000-0 22898-3 0 9994 2 39430 97.6518 324.3660 0127693 228.9371 130.0748 14.69276502662976 CUBEBUG 2 1 39440U 13066AA 26120.83171668 .00002650 00000-0 24991-3 0 9998 2 39440 97.8881 69.6336 0057732 182.9062 177.1830 14.93421431669929 FUNCUBE 1 1 39444U 13066AE 26120.84874317 .00010883 00000-0 68430-3 0 9997 2 39444 97.8252 91.3381 0036981 8.1702 352.0120 15.08838146672528 UWE-3 1 39446U 13066AG 26120.81934055 .00004741 00000-0 41039-3 0 9994 2 39446 97.8668 76.6003 0051082 116.7344 243.9118 14.96627834670490 UNISAT 6 1 40012U 14033C 26120.92989365 .00003427 00000-0 37306-3 0 9998 2 40012 97.7817 274.4986 0044391 222.8844 136.8908 14.87965136639136 DUCHIFAT 1 1 40021U 14033M 26120.68938737 .00075596 00000-0 10555-2 0 9990 2 40021 98.0530 173.5090 0004627 219.0196 141.0724 15.56609666648340 QB50P1 1 40025U 14033R 26120.48778258 .00009236 00000-0 46376-3 0 9991 2 40025 98.0983 128.3154 0009745 39.1571 321.0364 15.17502796645798 OBJECT G 1 40905U 15049G 26120.91247683 .00045535 00000-0 50296-3 0 9995 2 40905 97.4610 162.2645 0005762 49.9757 310.2006 15.62915847589051 LILACSAT 2 1 40908U 15049K 26120.90581850 .00020537 00000-0 36879-3 0 9990 2 40908 97.4715 155.9912 0008649 73.0996 287.1203 15.49879851588426 LQSAT 1 40958U 15057A 26120.97839701 .00000744 00000-0 11286-3 0 9995 2 40958 97.6674 116.6961 0018594 67.0822 293.2349 14.76722677568346 CHUBUSAT 2 1 41338U 16012B 26120.75284568 .00006174 00000-0 27086-3 0 9999 2 41338 30.9985 272.5562 0008762 314.4421 45.5503 15.20402588561195 CHUBUSAT 3 1 41339U 16012C 26120.87309400 .00004736 00000-0 22076-3 0 9992 2 41339 31.0047 280.2411 0009050 303.8980 56.0799 15.18163671561007 PRATHAM 1 41783U 16059A 26120.50375974 .00000841 00000-0 15690-3 0 9992 2 41783 97.8324 119.4600 0031620 13.3094 346.8938 14.67128423512525 ALSAT 1N 1 41789U 16059G 26120.98878472 .00000887 00000-0 15787-3 0 9998 2 41789 97.8015 126.4430 0025615 342.4317 17.6000 14.69228582513071